DateTimeUTC,F1_A11,F1_S11,BsB_S11,BsG_S11,BsR_S11,BbsB_S11,BbsG_S11,BbsR_S11,BaB_A11,BaG_A11,BaR_A11,T_S11,U_S11,P_S11,T1_A11
2020-07-08T00:00:00Z,00000388,20000608,,,,,,,,,,26.0,04.3,0675.4,31.2
2020-07-08T00:01:00Z,00000388,20000608,,,,,,,,,,26.0,04.3,0675.4,31.2
2020-07-08T00:02:00Z,00000388,20000608,,,,,,,,,,26.0,04.3,0675.4,31.2
2020-07-08T00:03:00Z,00000388,60000608,,,,,,,,,,26.0,04.3,0675.4,31.2
2020-07-08T00:04:00Z,00000388,40000608,0000.76,0000.06,-000.07,0000.96,0000.10,0000.07,0000.19,0000.18,0000.15,25.8,04.4,0676.3,31.2
2020-07-08T00:05:00Z,00000388,00000608,0001.48,0000.88,-000.04,-000.07,0000.23,0000.52,0000.04,0000.02,0000.22,25.8,04.3,0676.4,31.2
2020-07-08T00:06:00Z,00000388,00000608,0001.48,0000.32,0000.20,-000.06,-000.04,0000.46,0000.01,0000.13,-000.07,25.8,04.4,0676.4,31.2
2020-07-08T00:07:00Z,00000388,00000608,0000.66,0000.23,0000.51,0000.55,-000.15,0000.27,0000.17,-000.06,-000.01,25.8,04.4,0676.4,31.2
2020-07-08T00:08:00Z,00000388,00000608,0000.81,0000.68,0000.14,-000.49,0000.25,0000.23,0000.26,0000.27,0000.24,25.8,04.4,0676.4,31.2
2020-07-08T00:09:00Z,00000388,00000608,0001.55,0000.68,0000.48,0000.54,0000.47,0000.09,-000.18,0000.02,-000.03,25.8,04.4,0676.4,31.2
2020-07-08T00:10:00Z,00000388,00000608,0001.51,0001.13,0000.07,-000.25,0000.48,0000.60,0000.13,0000.03,0000.03,25.7,04.4,0676.4,31.2
2020-07-08T00:11:00Z,00000388,00000608,0002.57,0000.50,-000.14,0000.14,0000.02,0000.07,0000.00,0000.09,0000.24,25.7,04.5,0676.4,31.2
2020-07-08T00:12:00Z,00000388,00000608,0001.43,0000.19,0000.14,0000.79,0000.01,-000.16,0000.12,0000.11,-000.18,25.7,04.4,0676.4,31.2
2020-07-08T00:13:00Z,00000388,00000608,0000.78,0000.41,0000.11,-000.44,0000.07,0000.03,-000.04,-000.02,0000.20,25.7,04.4,0676.4,31.2
2020-07-08T00:14:00Z,00000388,00000608,0001.62,0001.05,0000.94,0000.19,0000.17,0000.25,0000.15,0000.26,-000.03,25.7,04.5,0676.4,31.2
2020-07-08T00:15:00Z,00000388,00000608,0000.37,0000.67,0000.11,-000.59,-000.04,-000.20,0000.02,-000.12,0000.10,25.7,04.4,0676.4,31.2
2020-07-08T00:16:00Z,00000388,00000608,0000.68,0000.32,0000.44,0000.38,0000.28,0000.30,0000.14,0000.02,0000.04,25.7,04.4,0676.4,31.2
2020-07-08T00:17:00Z,00000388,00000608,0001.15,0000.29,0000.89,-000.29,0000.01,0000.75,0000.11,0000.18,0000.12,25.7,04.4,0676.4,31.2
2020-07-08T00:18:00Z,00000388,00000608,0000.99,0000.89,0000.49,0000.33,0000.39,0000.43,-000.05,-000.00,0000.01,25.7,04.4,0676.4,31.2
2020-07-08T00:19:00Z,00000388,00000608,0000.59,0001.07,0000.27,-000.02,0000.22,0000.56,0000.15,0000.11,0000.12,25.7,04.4,0676.4,31.2
2020-07-08T00:20:00Z,00000388,00000608,0000.94,0000.82,0000.44,0001.58,-000.18,0000.55,0000.05,0000.05,-000.02,25.7,04.4,0676.4,31.2
2020-07-08T00:21:00Z,00000388,00000608,0002.12,0000.72,0000.35,-000.14,0000.47,0000.37,0000.03,0000.10,0000.10,25.7,04.4,0676.4,31.2
2020-07-08T00:22:00Z,00000388,00000608,0001.85,0000.91,0000.09,-000.10,0000.03,0000.47,0000.11,0000.02,0000.01,25.7,04.4,0676.4,31.2
2020-07-08T00:23:00Z,00000388,00000608,0001.26,0000.46,0000.12,-000.02,0000.13,0000.22,0000.20,0000.04,0000.14,25.7,04.4,0676.4,31.2
2020-07-08T00:24:00Z,00000388,00000608,0001.22,0000.51,0000.44,-000.06,-000.13,0000.34,-000.00,0000.10,0000.10,25.7,04.4,0676.4,31.2
2020-07-08T00:25:00Z,00000388,00000608,0001.48,0001.23,0000.35,0000.34,-000.04,-000.09,0000.23,0000.28,0000.16,25.7,04.5,0676.4,31.2
2020-07-08T00:26:00Z,00000388,00000608,0001.66,0000.92,0000.42,0000.05,0000.09,0000.42,0001.44,0001.36,0001.07,25.7,04.4,0676.4,31.2
2020-07-08T00:27:00Z,00000388,00000608,0005.05,0003.69,0001.87,0000.87,0000.36,0000.90,0011.29,0010.12,0007.60,25.7,04.4,0676.4,31.2
2020-07-08T00:28:00Z,00000388,00000608,0014.69,0010.85,0007.03,0003.56,0002.03,0001.73,0049.60,0045.23,0035.16,25.7,04.4,0676.4,31.2
2020-07-08T00:29:00Z,00000388,00000608,0014.52,0011.25,0006.96,0002.31,0002.00,0001.95,0046.86,0042.83,0033.33,25.7,04.5,0676.4,31.2
2020-07-08T00:30:00Z,00000388,00000608,0007.27,0004.56,0002.61,0001.29,0000.73,0000.74,0019.95,0018.08,0014.15,25.7,04.4,0676.4,31.2
2020-07-08T00:31:00Z,00000388,00000608,0002.15,0001.03,0000.06,-000.37,-000.05,0000.26,0001.09,0001.28,0001.00,25.7,04.4,0676.4,31.2
2020-07-08T00:32:00Z,00000388,00000608,0001.44,0000.51,0000.21,0000.28,0000.23,0000.24,0000.32,0000.08,0000.16,25.7,04.5,0676.4,31.2
2020-07-08T00:33:00Z,00000388,00000608,0001.11,0000.05,0000.65,-000.56,0000.30,0000.25,0000.16,0000.24,0000.12,25.7,04.4,0676.4,31.2
2020-07-08T00:34:00Z,00000388,00000608,0000.64,0000.47,-000.09,0000.74,0000.25,-000.02,0000.32,0000.19,0000.17,25.7,04.5,0676.3,31.2
2020-07-08T00:35:00Z,00000388,00000608,0000.97,0000.55,0000.44,-000.36,0000.44,0000.49,0000.07,0000.35,0000.27,25.7,04.5,0676.3,31.2
2020-07-08T00:36:00Z,00000388,00000608,0001.02,0000.46,-000.08,-000.60,0000.16,0000.37,0000.16,-000.07,-000.00,25.7,04.5,0676.4,31.2
2020-07-08T00:37:00Z,00000388,00000608,0001.40,0000.54,0000.52,0000.18,-000.32,0000.35,0000.16,0000.14,0000.18,25.6,04.5,0676.4,31.2
2020-07-08T00:38:00Z,00000388,00000608,0000.79,0000.90,0000.54,-000.13,-000.05,0000.65,0000.09,0000.17,0000.16,25.6,04.5,0676.3,31.2
2020-07-08T00:39:00Z,00000388,00000608,0000.69,0000.30,0000.21,-000.71,0000.29,0000.37,0000.20,0000.25,-000.07,25.7,04.5,0676.4,31.2
2020-07-08T00:40:00Z,00000388,00000608,0000.88,0000.55,0000.51,-000.07,-000.13,0000.41,0000.11,-000.08,0000.14,25.7,04.4,0676.4,31.2
2020-07-08T00:41:00Z,00000388,00000608,0001.15,0001.02,0000.54,0000.32,0000.33,0000.06,0000.08,0000.18,0000.09,25.7,04.4,0676.4,31.2
2020-07-08T00:42:00Z,00000388,00000608,0002.51,0000.39,0000.79,0000.29,-000.11,0000.62,-000.03,0000.05,0000.19,25.6,04.4,0676.4,31.2
2020-07-08T00:43:00Z,00000388,00000608,0001.00,0000.69,0000.60,-000.20,0000.01,0000.64,0000.22,0000.29,0000.09,25.6,04.4,0676.4,31.2
2020-07-08T00:44:00Z,00000388,00000608,-000.04,0000.90,-000.01,-000.60,0000.19,-000.13,0000.10,-000.04,-000.01,25.7,04.5,0676.4,31.2
2020-07-08T00:45:00Z,00000388,00000608,0001.58,0000.40,0000.66,-000.54,-000.15,0000.69,0000.24,0000.22,0000.29,25.7,04.4,0676.4,31.2
2020-07-08T00:46:00Z,00000388,00000608,0001.22,0000.56,0000.64,-000.81,0000.02,0000.64,0000.12,0000.16,-000.07,25.7,04.5,0676.4,31.2
2020-07-08T00:47:00Z,00000388,00000608,0001.54,0000.66,0000.71,-000.91,-000.03,0000.50,0000.08,0000.08,0000.24,25.7,04.5,0676.4,31.2
2020-07-08T00:48:00Z,00000388,00000608,0000.61,0000.64,0000.73,-000.23,0000.02,-000.01,0000.07,0000.21,-000.07,25.6,04.5,0676.4,31.2
2020-07-08T00:49:00Z,00000388,00000608,0002.31,0000.84,0000.17,-000.32,-000.01,0000.26,0000.04,-000.06,0000.11,25.7,04.5,0676.4,31.2
2020-07-08T00:50:00Z,00000388,00000608,0001.57,0001.85,0000.47,-000.12,0000.47,0000.11,0002.43,0002.28,0001.61,25.7,04.4,0676.4,31.2
2020-07-08T00:51:00Z,00000388,00000608,0002.46,0001.19,0000.71,0000.80,-000.06,0000.02,0001.64,0001.48,0001.27,25.7,04.4,0676.4,31.2
2020-07-08T00:52:00Z,00000388,00000608,0002.90,0001.72,0000.79,-000.25,0000.14,0000.08,0004.32,0003.95,0002.96,25.7,04.4,0676.4,31.2
2020-07-08T00:53:00Z,00000388,00000608,0006.22,0004.50,0002.85,0000.45,0000.73,0000.92,0019.34,0017.52,0013.52,25.7,04.5,0676.4,31.2
2020-07-08T00:54:00Z,00000388,00000608,0018.10,0012.88,0008.03,0003.59,0001.95,0001.21,0057.19,0052.04,0040.38,25.7,04.5,0676.4,31.2
2020-07-08T00:55:00Z,00000388,00000608,0014.61,0010.78,0006.81,0002.92,0002.21,0001.80,0048.57,0044.42,0034.49,25.7,04.5,0676.4,31.2
2020-07-08T00:56:00Z,00000388,00000608,0009.33,0005.58,0003.30,0000.93,0001.04,0000.73,0023.08,0021.01,0016.48,25.7,04.5,0676.4,31.2
2020-07-08T00:57:00Z,00000388,40000608,,,,,,,,,,25.7,04.4,0676.4,31.2
2020-07-08T00:58:00Z,00000388,60000608,,,,,,,,,,25.8,04.3,0675.4,31.2
2020-07-08T00:59:00Z,00000388,20000608,,,,,,,,,,25.9,04.3,0675.3,31.2
2020-07-08T01:00:00Z,00000388,20000608,,,,,,,,,,25.9,04.3,0675.3,31.2
2020-07-08T01:01:00Z,00000388,20000608,,,,,,,,,,25.9,04.3,0675.3,31.2
2020-07-08T01:02:00Z,00000388,20000608,,,,,,,,,,25.9,04.3,0675.3,31.2
2020-07-08T01:03:00Z,00000388,60000608,,,,,,,,,,25.9,04.3,0675.3,31.2
2020-07-08T01:04:00Z,00000388,40000608,0002.43,0001.00,0000.61,0000.80,-000.16,-000.13,0000.05,0000.09,0000.18,25.8,04.4,0676.3,31.2
2020-07-08T01:05:00Z,00000388,00000608,0001.28,0001.00,0000.23,0000.10,0000.21,0000.02,0000.19,0000.16,0000.18,25.7,04.4,0676.4,31.2
2020-07-08T01:06:00Z,00000388,00000608,0000.81,0001.29,0000.18,0000.25,-000.26,-000.21,0000.05,0000.07,0000.11,25.7,04.4,0676.4,31.2
2020-07-08T01:07:00Z,00000388,00000608,0002.10,0000.78,0000.72,0000.63,-000.09,0000.37,0000.28,0000.23,0000.07,25.7,04.4,0676.4,31.2
2020-07-08T01:08:00Z,00000388,00000608,0002.59,0001.52,0000.17,-000.10,-000.14,0000.21,0000.37,0000.32,0000.38,25.7,04.4,0676.4,31.2
2020-07-08T01:09:00Z,00000388,00000608,0001.51,0001.14,0001.03,0000.72,0000.15,0000.28,0002.90,0002.69,0001.97,25.7,04.3,0676.4,31.2
2020-07-08T01:10:00Z,00000388,00000608,0002.00,0001.46,0000.81,0000.02,0000.15,-000.07,0000.45,0000.59,0000.54,25.7,04.3,0676.4,31.2
2020-07-08T01:11:00Z,00000388,00000608,0001.83,0000.81,0000.43,0000.40,-000.08,-000.13,0000.34,0000.28,0000.11,25.7,04.4,0676.4,31.2
2020-07-08T01:12:00Z,00000388,00000608,0001.64,0000.97,0000.65,0000.71,-000.17,-000.13,0000.16,0000.10,0000.12,25.7,04.4,0676.4,31.2
2020-07-08T01:13:00Z,00000388,00000608,0001.32,0001.04,0000.53,0000.34,0000.17,0000.07,0000.18,0000.06,0000.23,25.7,04.4,0676.5,31.2
2020-07-08T01:14:00Z,00000388,00000608,0001.36,0000.62,0000.19,0000.10,0000.01,-000.09,0000.22,0000.08,0000.08,25.7,04.4,0676.5,31.2
2020-07-08T01:15:00Z,00000388,00000608,0000.89,0000.97,0000.60,0001.30,-000.20,0000.50,0000.06,0000.12,-000.04,25.7,04.4,0676.5,31.2
2020-07-08T01:16:00Z,00000388,00000608,0001.77,0000.73,0000.54,0000.57,0000.03,0000.01,0000.10,0000.31,0000.28,25.7,04.5,0676.5,31.2
2020-07-08T01:17:00Z,00000388,00000608,0001.19,0001.08,0000.34,0000.39,-000.48,-000.03,0000.13,0000.03,0000.01,25.7,04.4,0676.5,31.2
2020-07-08T01:18:00Z,00000388,00000608,0001.56,0000.77,0000.25,0000.38,0000.36,0000.12,0000.29,0000.11,0000.02,25.7,04.4,0676.5,31.2
2020-07-08T01:19:00Z,00000388,00000608,0001.58,0000.91,0000.45,-000.55,-000.02,0000.32,-000.10,0000.13,0000.23,25.7,04.4,0676.5,31.2
2020-07-08T01:20:00Z,00000388,00000608,-000.46,0001.54,0000.35,0000.77,-000.14,0000.34,0000.27,0000.05,-000.02,25.7,04.4,0676.4,31.2
2020-07-08T01:21:00Z,00000388,00000608,0002.53,0000.42,0000.37,0000.65,0000.14,-000.20,-000.04,0000.21,0000.30,25.7,04.4,0676.4,31.2
2020-07-08T01:22:00Z,00000388,00000608,0001.75,0000.70,0000.70,-000.18,0000.24,-000.10,0000.13,0000.09,-000.00,25.7,04.4,0676.4,31.2
2020-07-08T01:23:00Z,00000388,00000608,0001.02,0000.75,0000.20,-000.05,0000.15,0000.15,0000.27,0000.16,0000.18,25.7,04.4,0676.4,31.2
2020-07-08T01:24:00Z,00000388,00000608,0001.29,0000.68,0000.50,0000.45,0000.29,-000.18,-000.06,0000.06,0000.07,25.7,04.4,0676.4,31.2
2020-07-08T01:25:00Z,00000388,00000608,0001.95,0001.04,0000.47,0000.55,0000.15,-000.23,0000.16,0000.01,-000.05,25.7,04.4,0676.4,31.2
2020-07-08T01:26:00Z,00000388,00000608,0002.02,0000.74,0000.24,-000.65,0000.09,-000.02,0000.17,0000.22,0000.21,25.7,04.4,0676.4,31.2
2020-07-08T01:27:00Z,00000388,00000608,0001.04,0000.76,0000.46,0000.22,-000.24,-000.05,0000.12,0000.26,0000.03,25.7,04.4,0676.4,31.2
2020-07-08T01:28:00Z,00000388,00000608,0000.08,0000.97,0000.53,0000.77,-000.11,-000.14,0000.19,-000.04,0000.16,25.7,04.4,0676.4,31.2
2020-07-08T01:29:00Z,00000388,00000608,0002.48,0000.65,0000.28,0000.91,0000.19,-000.08,0000.11,0000.12,0000.05,25.7,04.5,0676.4,31.2
2020-07-08T01:30:00Z,00000388,00000608,0000.98,0001.14,0000.75,0000.58,0000.05,0000.20,0000.06,0000.21,0000.17,25.7,04.4,0676.3,31.2
2020-07-08T01:31:00Z,00000388,00000608,0001.38,0001.10,0000.60,0000.54,0000.07,-000.14,0000.06,0000.07,0000.08,25.7,04.4,0676.4,31.2
2020-07-08T01:32:00Z,00000388,00000608,0001.11,0001.17,0000.75,-000.30,0000.17,0000.11,0000.22,0000.14,0000.19,25.7,04.3,0676.4,31.2
2020-07-08T01:33:00Z,00000388,00000608,-000.07,0001.36,0000.72,0000.49,-000.27,-000.23,0000.00,0000.05,-000.11,25.7,04.4,0676.4,31.2
2020-07-08T01:34:00Z,00000388,00000608,0001.48,0001.26,0000.65,0000.83,-000.43,0000.14,0000.11,0000.27,0000.15,25.7,04.4,0676.4,31.2
2020-07-08T01:35:00Z,00000388,00000608,0002.48,0001.35,0000.43,0000.44,-000.29,0000.17,0000.26,0000.02,0000.14,25.7,04.4,0676.4,31.2
2020-07-08T01:36:00Z,00000388,00000608,0000.97,0001.11,0000.55,0000.92,-000.02,0000.28,-000.02,-000.01,0000.10,25.7,04.4,0676.4,31.2
2020-07-08T01:37:00Z,00000388,00000608,0001.94,0001.07,0000.68,-000.18,0000.18,0000.23,0000.14,0000.17,0000.15,25.7,04.4,0676.4,31.2
2020-07-08T01:38:00Z,00000388,00000608,0001.57,0001.06,0000.45,-000.33,-000.09,0000.44,-000.01,0000.17,0000.01,25.7,04.4,0676.4,31.2
2020-07-08T01:39:00Z,00000388,00000608,0000.43,0001.40,0000.73,-000.03,0000.11,-000.07,0000.18,-000.03,0000.06,25.7,04.4,0676.4,31.2
2020-07-08T01:40:00Z,00000388,00000608,0000.97,0000.71,0000.36,-000.04,-000.19,0000.38,0000.06,0000.14,0000.10,25.7,04.3,0676.4,31.2
2020-07-08T01:41:00Z,00000388,00000608,0001.85,0000.66,0000.69,0000.37,0000.04,0000.02,-000.02,-000.05,-000.08,25.7,04.4,0676.4,31.2
2020-07-08T01:42:00Z,00000388,00000608,0000.95,0001.17,-000.10,-000.25,0000.07,-000.12,0000.22,0000.29,0000.21,25.7,04.4,0676.4,31.2
2020-07-08T01:43:00Z,00000388,00000608,0001.56,0001.23,0000.27,0000.12,-000.15,0000.43,0000.12,0000.15,0000.04,25.7,04.4,0676.4,31.2
2020-07-08T01:44:00Z,00000388,00000608,0001.60,0001.20,0000.81,0000.56,-000.17,-000.32,0000.24,0000.16,0000.19,25.7,04.4,0676.4,31.2
2020-07-08T01:45:00Z,00000388,00000608,0001.77,0001.04,0000.79,0000.02,0000.18,0000.15,-000.01,-000.13,-000.03,25.7,04.4,0676.4,31.2
2020-07-08T01:46:00Z,00000388,00000608,0001.17,0001.14,0000.32,0000.19,0000.02,0000.12,0000.13,0000.29,0000.25,25.7,04.4,0676.4,31.2
2020-07-08T01:47:00Z,00000388,00000608,0000.22,0001.55,0000.46,0000.09,-000.02,0000.26,0000.14,-000.13,0000.04,25.7,04.4,0676.4,31.2
2020-07-08T01:48:00Z,00000388,00000608,0000.82,0001.03,0000.39,0000.84,-000.09,0000.01,0000.01,0000.08,-000.12,25.7,04.4,0676.4,31.2
2020-07-08T01:49:00Z,00000388,00000608,0000.63,0001.03,0000.63,0000.23,0000.35,-000.17,0000.24,0000.24,0000.22,25.7,04.5,0676.4,31.2
2020-07-08T01:50:00Z,00000388,00000608,0002.49,0000.91,0000.42,0000.50,0000.06,0000.10,-000.02,-000.03,0000.17,25.7,04.4,0676.3,31.2
2020-07-08T01:51:00Z,00000388,00000608,0002.70,0001.51,0000.54,0000.27,0000.14,-000.09,0000.31,0000.38,-000.07,25.7,04.4,0676.3,31.2
2020-07-08T01:52:00Z,00000388,00000608,0001.88,0001.00,0000.52,0000.41,0000.15,0000.27,-000.16,-000.32,-000.02,25.7,04.4,0676.3,31.2
2020-07-08T01:53:00Z,00000388,00000608,0001.15,0000.41,0000.71,0000.59,-000.10,-000.40,0000.01,0000.20,0000.16,25.7,04.3,0676.4,31.2
2020-07-08T01:54:00Z,00000388,00000608,0002.15,0000.32,0000.67,-000.54,-000.12,0000.06,0000.36,0000.28,0000.19,25.7,04.4,0676.4,31.2
2020-07-08T01:55:00Z,00000388,00000608,0001.51,0000.82,0000.12,0000.21,0000.24,-000.23,0000.08,0000.04,-000.02,25.7,04.4,0676.4,31.2
2020-07-08T01:56:00Z,00000388,00000608,0001.89,0000.66,0000.17,0000.58,0000.07,0000.14,0000.07,0000.14,0000.30,25.7,04.4,0676.3,31.2
2020-07-08T01:57:00Z,00000388,40000608,,,,,,,,,,25.7,04.8,0676.4,31.2
2020-07-08T01:58:00Z,00000388,60000608,,,,,,,,,,25.8,04.4,0675.3,31.2
2020-07-08T01:59:00Z,00000388,20000608,,,,,,,,,,25.9,04.3,0675.3,31.2
2020-07-08T02:00:00Z,00000388,20000608,,,,,,,,,,25.9,04.3,0675.3,31.2
2020-07-08T02:01:00Z,00000388,20000608,,,,,,,,,,25.9,04.3,0675.3,31.2
2020-07-08T02:02:00Z,00000388,20000608,,,,,,,,,,25.9,04.3,0675.3,31.2
2020-07-08T02:03:00Z,00000388,60000608,,,,,,,,,,25.9,04.3,0675.3,31.2
2020-07-08T02:04:00Z,00000388,40000608,0001.71,0000.44,0001.57,0000.82,0000.73,0000.01,0000.10,-000.01,0000.26,25.8,04.2,0676.3,31.2
2020-07-08T02:05:00Z,00000388,00000608,0000.88,0000.59,0000.48,-000.13,0000.43,0000.57,0000.09,0000.15,0000.01,25.7,04.2,0676.4,31.2
2020-07-08T02:06:00Z,00000388,00000608,0000.99,0000.75,0000.23,0000.15,-000.08,0000.24,0000.11,0000.22,0000.23,25.7,04.3,0676.4,31.2
2020-07-08T02:07:00Z,00000388,00000608,0001.77,0001.22,-000.02,-000.16,-000.03,0000.05,0000.23,0000.15,0000.08,25.7,04.3,0676.4,31.2
2020-07-08T02:08:00Z,00000388,00000608,0001.21,0001.08,0001.16,-000.33,0000.10,0000.70,0000.13,0000.06,-000.01,25.7,04.3,0676.4,31.2
2020-07-08T02:09:00Z,00000388,00000608,0001.26,0000.84,0000.38,-000.73,-000.17,0000.32,-000.05,-000.02,0000.15,25.7,04.3,0676.4,31.2
2020-07-08T02:10:00Z,00000388,00000608,0000.85,0001.32,0000.70,0000.11,0000.66,-000.00,0000.36,0000.17,0000.05,25.7,04.4,0676.4,31.2
2020-07-08T02:11:00Z,00000388,00000608,0002.03,0001.50,0000.32,0000.21,0000.07,0000.29,-000.12,0000.18,0000.08,25.7,04.4,0676.4,31.2
2020-07-08T02:12:00Z,00000388,00000608,0001.23,0000.96,0000.53,-000.18,0000.59,-000.08,0000.15,-000.03,0000.06,25.7,04.4,0676.4,31.2
2020-07-08T02:13:00Z,00000388,00000608,0001.29,0000.72,0000.29,-000.09,0000.38,0000.23,-000.26,0000.15,-000.05,25.7,04.3,0676.4,31.2
2020-07-08T02:14:00Z,00000388,00000608,0001.65,0000.97,0001.14,-000.57,0000.24,0000.17,0000.18,-000.08,0000.05,25.7,04.2,0676.4,31.2
2020-07-08T02:15:00Z,00000388,00000608,0001.13,0001.43,0000.59,0000.15,0000.24,0000.15,0000.02,-000.08,-000.01,25.7,04.3,0676.4,31.2
2020-07-08T02:16:00Z,00000388,00000608,0000.74,0000.82,0000.49,-000.03,0000.42,0000.07,0000.09,0000.13,0000.20,25.7,04.2,0676.4,31.2
2020-07-08T02:17:00Z,00000388,00000608,0001.52,0000.68,0000.43,-000.16,-000.07,-000.09,0000.23,0000.21,0000.03,25.7,04.2,0676.4,31.2
2020-07-08T02:18:00Z,00000388,00000608,0000.87,0001.33,0000.50,0000.48,0000.17,-000.05,-000.10,-000.11,-000.04,25.7,04.2,0676.4,31.2
2020-07-08T02:19:00Z,00000388,00000608,0001.37,0001.18,0000.66,0000.44,0000.26,0000.21,-000.48,-000.22,-000.18,25.7,04.0,0676.4,31.2
2020-07-08T02:20:00Z,00000388,00000608,0001.38,0000.91,0000.56,0000.51,0000.41,0000.33,-000.24,-000.46,-000.33,25.7,03.7,0676.4,31.2
2020-07-08T02:21:00Z,00000388,00000608,0001.14,0001.10,0000.54,-000.47,0000.66,-000.09,0000.74,0000.68,0000.65,25.7,03.9,0676.4,31.2
2020-07-08T02:22:00Z,00000388,00000608,0002.32,0001.18,0000.97,0000.37,0000.20,0000.04,0001.68,0001.61,0001.23,25.7,04.1,0676.4,31.2
2020-07-08T02:23:00Z,00000388,00000608,0007.23,0004.95,0003.25,0000.87,0001.08,0000.20,0018.08,0016.55,0012.80,25.7,04.2,0676.4,31.2
2020-07-08T02:24:00Z,00000388,00000608,0015.49,0010.44,0006.36,0002.38,0002.35,0001.12,0042.85,0038.68,0029.93,25.7,04.3,0676.4,31.2
2020-07-08T02:25:00Z,00000388,00000608,0026.85,0018.84,0012.20,0005.44,0003.51,0002.17,0084.51,0077.19,0059.97,25.7,04.2,0676.4,31.2
2020-07-08T02:26:00Z,00000388,00000608,0010.93,0007.42,0004.89,0001.60,0001.42,0001.14,0031.93,0029.22,0022.81,25.7,04.3,0676.4,31.2
2020-07-08T02:27:00Z,00000388,00000608,0006.70,0004.39,0002.49,-000.22,0000.94,0000.70,0015.99,0014.71,0011.36,25.7,04.3,0676.4,31.2
2020-07-08T02:28:00Z,00000388,00000608,0001.05,0002.27,0001.26,-000.27,0000.29,0000.08,0004.35,0003.95,0003.18,25.7,04.2,0676.4,31.2
2020-07-08T02:29:00Z,00000388,00000608,0002.10,0001.51,0000.94,-000.57,0000.30,-000.10,0002.27,0002.06,0001.62,25.7,04.3,0676.4,31.2
2020-07-08T02:30:00Z,00000388,00000608,0002.09,0000.87,0000.45,-000.24,0000.48,-000.41,0000.53,0000.56,0000.44,25.7,04.4,0676.4,31.2
2020-07-08T02:31:00Z,00000388,00000608,0001.43,0001.60,0000.67,0000.45,0000.35,0000.41,0000.23,0000.31,0000.27,25.7,04.2,0676.4,31.2
2020-07-08T02:32:00Z,00000388,00000608,0001.29,0001.10,0000.50,0000.21,0000.20,-000.38,0000.27,0000.11,0000.09,25.7,04.3,0676.4,31.2
2020-07-08T02:33:00Z,00000388,00000608,0001.22,0000.61,0000.67,0000.10,-000.02,0000.12,0000.21,0000.36,0000.21,25.7,04.3,0676.4,31.2
2020-07-08T02:34:00Z,00000388,00000608,0000.83,0000.66,0000.30,0000.12,0000.39,0000.03,0000.05,0000.13,0000.15,25.7,04.3,0676.4,31.2
2020-07-08T02:35:00Z,00000388,00000608,0000.00,0001.07,0000.22,0000.02,0000.08,0000.04,0000.33,0000.07,0000.15,25.7,04.3,0676.4,31.2
2020-07-08T02:36:00Z,00000388,00000608,0000.93,0000.76,0000.58,-000.40,0000.24,0000.36,0000.17,0000.26,0000.11,25.7,04.3,0676.4,31.2
2020-07-08T02:37:00Z,00000388,00000608,0007.53,0005.84,0003.32,0001.73,0001.02,0000.80,0014.65,0012.87,0009.60,25.7,04.3,0676.4,31.2
2020-07-08T02:38:00Z,00000388,00000608,0132.52,0095.93,0059.59,0024.96,0018.94,0013.19,0416.66,0377.66,0291.59,25.7,04.3,0676.4,31.2
2020-07-08T02:39:00Z,00040388,00000608,0163.77,0118.24,0073.82,0029.28,0022.36,0015.60,0556.92,0509.36,0397.30,25.7,04.3,0676.4,31.2
2020-07-08T02:40:00Z,00040388,00000608,0021.54,0015.49,0009.68,0004.10,0003.11,0001.85,0082.86,0076.36,0059.63,25.7,04.3,0676.4,31.2
2020-07-08T02:41:00Z,00040388,00000608,0004.83,0004.15,0002.38,0000.66,0000.75,0000.88,0017.31,0016.04,0012.71,25.7,04.3,0676.4,31.2
2020-07-08T02:42:00Z,00040388,00000608,0005.16,0003.72,0001.98,0000.81,0000.31,0000.81,0012.27,0011.13,0008.86,25.7,04.3,0676.4,31.2
2020-07-08T02:43:00Z,00040388,00000608,0001.77,0001.87,0001.49,0001.00,0000.01,0000.32,0005.60,0005.23,0004.09,25.7,04.3,0676.4,31.2
2020-07-08T02:44:00Z,00040388,00000608,0001.99,0000.52,0000.49,0000.63,0000.30,-000.20,0001.74,0001.56,0001.31,25.7,04.3,0676.4,31.2
2020-07-08T02:45:00Z,00040388,00000608,0007.05,0006.07,0003.99,0001.83,0001.21,0000.75,0016.77,0015.15,0011.61,25.7,04.3,0676.4,31.2
2020-07-08T02:46:00Z,00040388,00000608,0029.71,0021.88,0013.83,0005.83,0004.45,0002.70,0088.46,0080.70,0062.72,25.7,04.3,0676.4,31.2
2020-07-08T02:47:00Z,00040388,00000608,0005.14,0005.18,0003.11,0001.07,0001.23,0000.69,0020.97,0019.27,0015.43,25.7,04.2,0676.4,31.2
2020-07-08T02:48:00Z,00040388,00000608,0002.95,0000.73,0000.78,0000.26,0000.46,0000.02,0001.01,0001.05,0000.83,25.7,04.2,0676.4,31.2
2020-07-08T02:49:00Z,00040388,00000608,0000.86,0001.10,0000.51,0000.29,0000.01,0000.55,0000.86,0000.78,0000.48,25.7,04.2,0676.4,31.2
2020-07-08T02:50:00Z,00040388,00000608,0001.77,0000.90,0000.64,-000.21,0000.14,0000.06,0000.59,0000.55,0000.63,25.7,04.3,0676.3,31.2
2020-07-08T02:51:00Z,00040388,00000608,0001.66,0001.02,0000.56,-000.44,0000.20,0000.10,0000.64,0000.57,0000.53,25.7,04.3,0676.3,31.2
2020-07-08T02:52:00Z,00040388,00000608,0001.18,0000.87,0000.49,-000.31,0000.40,0000.13,0000.19,0000.53,0000.16,25.7,04.2,0676.3,31.2
2020-07-08T02:53:00Z,00040388,00000608,0000.60,0001.15,0000.38,0000.04,0000.33,-000.13,0000.78,0000.42,0000.52,25.7,04.2,0676.3,31.2
2020-07-08T02:54:00Z,00040388,00000608,0001.49,0000.92,0000.75,-000.30,0000.39,0000.61,0000.51,0000.62,0000.45,25.7,04.2,0676.3,31.2
2020-07-08T02:55:00Z,00040388,00000608,0008.10,0006.09,0003.35,0001.02,0001.26,0000.93,0021.89,0019.94,0015.48,25.7,04.2,0676.3,31.2
2020-07-08T02:56:00Z,00040388,00000608,0009.07,0006.13,0004.11,0000.26,0001.71,0001.17,0024.04,0021.96,0016.97,25.7,04.2,0676.3,31.2
2020-07-08T02:57:00Z,00040388,40000608,,,,,,,,,,25.7,04.3,0676.3,31.2
2020-07-08T02:58:00Z,00040388,60000608,,,,,,,,,,25.8,04.1,0675.2,31.2
2020-07-08T02:59:00Z,00040388,20000608,,,,,,,,,,25.9,04.1,0675.2,31.2
2020-07-08T03:00:00Z,00040388,20000608,,,,,,,,,,25.9,04.1,0675.2,31.2
2020-07-08T03:01:00Z,00040388,20000608,,,,,,,,,,26.0,04.1,0675.2,31.2
2020-07-08T03:02:00Z,00040388,20000608,,,,,,,,,,26.0,04.1,0675.2,31.2
2020-07-08T03:03:00Z,00040388,60000608,,,,,,,,,,26.0,04.1,0675.2,31.2
2020-07-08T03:04:00Z,00040388,40000608,0002.38,0000.81,0000.32,0000.81,-000.45,0000.07,0000.43,0000.47,0000.32,25.8,04.2,0676.2,31.2
2020-07-08T03:05:00Z,00040388,00000608,0010.87,0006.97,0004.48,0001.24,0001.21,0001.02,0024.65,0022.29,0017.11,25.8,04.1,0676.2,31.2
2020-07-08T03:06:00Z,00040388,00000608,0033.06,0022.87,0014.75,0006.33,0004.38,0003.57,0095.61,0087.26,0067.86,25.7,04.2,0676.2,31.2
2020-07-08T03:07:00Z,00140388,00000608,0021.08,0015.49,0009.32,0003.93,0002.24,0002.10,,,,25.8,04.2,0676.2,31.2
2020-07-08T03:07:00Z,00140388,00000608,0021.08,0015.49,0009.32,0003.93,0002.24,0002.10,,,,25.8,04.2,0676.2,31.2
2020-07-08T03:07:01Z,,00000608,0021.08,0015.49,0009.32,0003.93,0002.24,0002.10,,,,25.8,04.2,0676.2,
2020-07-08T03:07:08Z,00000388,00000608,0021.08,0015.49,0009.32,0003.93,0002.24,0002.10,0078.97,0071.67,0055.50,25.8,04.2,0676.2,31.2